www.pogodaiklimat.ru

Погода и климат >> Архив погоды >> Россия >> Чукотка >> Чаун


ПОГОДА в Чауне

  • Прогноз погоды в Чауне
  • Монитор погоды в Чауне
  • Климат города

АРХИВ ПОГОДЫ в Чауне

Время (UTC), дата Ветер
(напр.,м/с)
 
Видим.   Явления Облачность Т
(С)
Тd
(С)
f
(%)
Тe
(С)
Тes
(С)
Комфортность P
(гПа)
Po
(гПа)
Тmin
(С)
Tmax
(С)
R
(мм)
R24
(мм)
S
(см)
00 18.05 ЮВ 5
{8}
50 км 6/4 200 м
[St Ac trans]
0.0 -1.2 92 -6 -4 1009.6 1009.0
03 18.05 ЮВ 5
{8}
50 км 6/4 200 м
[St Ac trans]
0.0 -1.2 92 -6 -4 1009.6 1009.0
06 18.05 ЮВ 4
{6}
50 км 4/0
[Ac lent]
+2.5 -0.5 81 -2 -1 1008.6 1008.0
09 18.05 ЮВ 4
{4}
50 км 4/0
[Ac lent]
+0.8 -0.9 88 -5 -4 1007.7 1007.1 +3.8
12 18.05 ЮВ 4
{6}
50 км 4/0
[Ac lent]
-1.5 -2.7 92 -7 -7 1008.1 1007.5
15 18.05 В 5
{6}
50 км 4/0
[Ac lent]
-2.3 -3.2 94 -9 -9 1008.2 1007.6
18 18.05 ЮВ 6
{9}
50 км 4/0
[Ac lent]
+0.8 -1.2 86 -6 -5 1008.2 1007.6
21 18.05 ЮВ 5
{9}
50 км 4/0
[Ac lent Ci fib]
+3.4 +0.2 80 -2 +1 1008.4 1007.8 -3.4 41
00 19.05 ЮВ 7-10
{10}
50 км 3/0
[Ci fib]
+4.4 +0.5 76 -1 +2 1007.9 1007.3
03 19.05 ЮВ 7
{12}
50 км ясно +4.5 +0.6 76 -1 +1 1007.5 1006.9
06 19.05 ЮВ 7
{10}
50 км ясно +4.4 +0.7 77 -1 -0 1007.3 1006.7
09 19.05 ЮВ 7
{11}
50 км ясно +2.5 -1.4 75 -4 -4 1007.2 1006.6 +4.8
12 19.05 ЮВ 7
{10}
50 км ясно +1.1 -0.9 86 -6 -6 1007.4 1006.8
15 19.05 ЮВ 8
{11}
50 км ясно +0.9 -0.8 88 -6 -6 1007.3 1006.7
18 19.05 ЮВ 8-11
{12}
50 км 3/0
[Ci fib]
+2.3 -0.2 84 -4 -4 1007.3 1006.7
21 19.05 ЮВ 10-12
{12}
50 км 4/0
[Ci fib]
+3.9 +0.2 77 -3 -3 1007.2 1006.6 +0.7 34
00 20.05 ЮВ 10-12
{13}
50 км 4/0
[Ci fib]
+5.3 +0.7 72 -1 -0 1007.0 1006.4
03 20.05 ЮВ 9-11
{13}
50 км 3/0
[Ci fib]
+5.8 +1.3 73 0 +1 1006.8 1006.2
06 20.05 ЮВ 4
{11}
50 км ясно +5.4 +1.1 74 +2 +4 1007.1 1006.5
09 20.05 ЮВ 6
{10}
50 км ясно +2.5 +0.1 84 -3 -3 1007.3 1006.7 +5.4
12 20.05 В 6
{9}
50 км ясно +1.2 -0.5 88 -5 -5 1007.7 1007.1
15 20.05 ЮВ 6
{8}
50 км ясно +0.5 -1.2 88 -6 -6 1007.7 1007.1
18 20.05 ЮВ 5
{8}
50 км ясно +2.5 -0.2 82 -3 -2 1007.6 1007.0
21 20.05 ЮВ 3
{10}
50 км ясно +4.3 -0.2 73 +1 +6 1007.7 1007.1 0.0 30
00 21.05 ЮВ 5
{12}
50 км ясно +5.9 +0.2 67 +2 +7 1006.9 1006.3
03 21.05 Ю 4
{7}
50 км ясно +7.0 -0.2 60 +4 +9 1006.1 1005.5
06 21.05 СВ 2
{6}
50 км ясно +3.6 +0.1 78 +1 +4 1005.7 1005.1
09 21.05 СВ 1
{4}
50 км 4/0
[Ac lent]
+2.3 -0.2 84 +1 +1 1005.9 1005.3 +5.8
12 21.05 В 5
{6}
50 км 4/0
[Ac lent]
+0.2 -1.9 86 -6 -6 1006.5 1005.9
15 21.05 В 6
{8}
4000 м ясно -1.1 -2.6 90 -8 -8 1006.6 1006.0
18 21.05 В 5
{8}
50 км ясно +0.2 -2.2 84 -6 -5 1007.2 1006.6
21 21.05 В 6
{7}
50 км 3/0
[Ci sp]
+2.9 -1.3 74 -3 -0 1007.5 1006.9 -1.1 26
00 22.05 С 3
{8}
50 км ясно +1.7 -0.5 85 -3 +6 1007.7 1007.1
03 22.05 СВ 6
{8}
50 км ясно +4.2 -1.6 66 -1 +3 1007.8 1007.2
06 22.05 СВ 7-10
{11}
50 км ясно +2.3 -1.7 75 -4 -3 1008.1 1007.5
09 22.05 СВ 9-11
{13}
50 км ясно -0.9 -3.7 81 -9 -9 1009.4 1008.8 +4.7
12 22.05 В 7-10
{13}
50 км ясно -3.5 -6.0 83 -11 -11 1010.6 1010.0
15 22.05 СВ 9-10
{13}
50 км ясно -4.0 -6.2 85 -13 -13 1010.9 1010.3
18 22.05 СВ 9-10
{12}
50 км 3/0
[Ci sp]
-1.3 -3.5 85 -10 -9 1011.6 1011.0
21 22.05 ЮВ 4
{10}
50 км 6/0
[Ci]
-0.8 -3.3 83 -6 -3 1013.0 1012.4 -4.2 24
00 23.05 СЗ 4
{7}
50 км 6/0
[Ci]
-0.5 -4.0 77 -6 0 1012.8 1012.2
03 23.05 З 5
{6}
50 км ясно -0.8 -2.9 86 -7 -3 1012.6 1012.0
06 23.05 СВ 5
{8}
50 км ясно -0.3 -4.8 72 -6 -4 1012.9 1012.3
09 23.05 СВ 8-10
{10}
50 км 3/0
[Ci fib]
-2.0 -5.4 78 -10 -10 1013.6 1013.0 +0.1
12 23.05 СВ 8-10
{11}
50 км 4/0
[Ci fib]
-3.6 -6.5 80 -12 -12 1014.0 1013.4
15 23.05 В 4
{11}
50 км 3/0
[Ci fib]
-5.1 -8.0 80 -11 -11 1014.4 1013.8
18 23.05 С 3
{9}
50 км ясно -4.9 -6.2 91 -10 -9 1014.4 1013.8
21 23.05 СЗ 5
{7}
50 км ясно -3.4 -5.5 85 -10 -7 1015.2 1014.6 -5.2 24
00 24.05 СЗ 5
{7}
50 км 3/0
[]
-2.5 -4.4 87 -9 -5 1014.7 1014.1
03 24.05 СЗ 5
{6}
50 км 3/0
[]
-1.2 -4.1 81 -7 -4 1014.4 1013.8
06 24.05 СЗ 4
{6}
50 км 3/0
[]
-0.7 -2.8 86 -6 -4 1014.1 1013.5
09 24.05 В 3
{5}
50 км 4/0
[Ac lent]
-1.6 -6.0 72 -6 -6 1014.2 1013.6 +0.5
12 24.05 В 4
{6}
50 км 4/0
[Ac lent]
-4.2 -6.8 82 -10 -10 1013.6 1013.0
15 24.05 ЮВ 1
{8}
50 км 4/0
[Ac lent]
-4.8 -7.6 81 -7 -7 1013.3 1012.7
18 24.05 В 2
{5}
50 км 6/3 200 м
[St Ac lent]
-4.4 -7.1 81 -9 -8 1012.3 1011.7

 

Местоположение метеостанции Чаун (Чукотка, Россия): широта 68.88 долгота 170.70 высота над уровнем моря 5 м.

В архиве по умолчанию представлена погода в Чауне за последнюю неделю. Архивные данные за месяц целиком и за предыдущие месяцы, начиная с января 2011 года, Вы можете получить, выбрав интересующий диапазон дат из раскрывающегося списка и нажав кнопку "Ввод!".

Внимание! Время в таблицах - всемирное. Для получения местного времени необходимо прибавить поправку, которая в Чауне равна 12 ч.

Смотрите также архив погоды в соседних городах и на ближайших метеорологических станциях:

Погода в 21 км (Чукотка, Россия) (84 км)
Погода в Комсомольской (Чукотка, Россия) (89 км)
Погода в Певеке (Чукотка, Россия) (93 км)
Погода в Майской (Чукотка, Россия) (117 км)
Погода в Валькаркае (Чукотка, Россия) (134 км)
Погода в Паляваам-Глубокой (Чукотка, Россия) (137 км)
Погода на Айон Острове (Чукотка, Россия) (160 км)
Погода в Раучуе (Чукотка, Россия) (180 км)
Погода в Билибино (Чукотка, Россия) (198 км)
Погода в Илирнее (Чукотка, Россия) (215 км)

Пояснения к столбцам:

Ветер - указаны скорость ветра в м/с - средняя за 10 мин, порывы в срок и между сроками (в фигурных скобках) и направление, откуда дует ветер: С - северный, СВ - северо-восточный, В - восточный, ЮВ - юго-восточный, Ю - южный, ЮЗ - юго-западный, З - западный, СЗ - северо-западный.
Видимость - горизонтальная дальность видимости в метрах или километрах. При видимости от 1 до 10 км при отсутствии осадков обычно наблюдается дымка, при ухудшении видимости до 1 км и менее - туман. В сухую погоду видимость может ухудшаться дымом, пылью или мглою.
Явления - указаны атмосферные явления, наблюдавшиеся в срок или в последний час перед сроком; фигурными скобками обозначены явления, наблюдавшиеся между сроками (за 1-3 часа до срока); квадратными скобками обозначены град или гололедные отложения с указанием их диаметра в мм.
Облачность - указаны через наклонную черту общая и нижняя облачность в баллах и высота нижней границы облаков в метрах; квадратными скобками обозначены формы облаков: Ci - перистые, Cs - перисто-слоистые, Cc - перисто-кучевые, Ac - высококучевые, As - высокослоистые, Sc - слоисто-кучевые, Ns - слоисто-дождевые, Cu - кучевые, Cb - кучево-дождевые. Подробнее классификацию облаков см. в Атласе облаков (PDF).
T - Температура воздуха - температура, измеренная на высоте 2 м над землей.
Td - Температура точки росы - температура, при понижении до которой содержащийся в воздухе водяной пар достигнет насыщения.
f - Относительная влажность воздуха - влажноcть воздуха, измеренная на высоте 2 м над землей.
Te - Эффективная температура - температура, которую ощущает одетый по сезону человек в тени. Характеристика душности погоды. При расчете учитывается влияние влажности воздуха и скорости ветра на теплоощущения человека.
Tes - Эффективная температура на солнце - температура, которую ощущает человек, с поправкой на солнечный нагрев. Характеристика знойности погоды. Зависит от высоты солнца над горизонтом, облачности и скорости ветра. Ночью, в пасмурную погоду, а также при ветре 12 м/с и более поправка равна нулю.
P - Атмосферное давление - приведенное к уровню моря атмосферное давление.
Po - Атмосферное давление - измеренное на уровне метеостанции атмосферное давление.
Tmin - Минимальная температура - минимум температуры воздуха на высоте 2 м над землей.
Tmax - Максимальная температура - максимум температуры воздуха на высоте 2 м над землей.
R - Количество осадков - Количество выпавших осадков за период времени, мм. При наведении курсора мыши на число - период времени, за который выпало указанное количество осадков.
R24 - Количество осадков - Количество выпавших осадков за 24 часа, мм.
S - Снежный покров - Высота снежного покрова, см. При наведении курсора мыши на число - состояние снежного покрова и степень покрытия местности в баллах.